Helicity
371 394 399 510 410 486 410 386 301 283 296 271 272 267 244 224 219 191 174 171 165 159
433 325 367 513 437 388 410 535 350 274 270 274 259 305 297 279 292 260 221 185 196 186
342 383 514 523 447 482 472 437 497 373 305 395 331 354 372 376 334 342 260 218 214 199
346 340 416 490 542 543 572 550 290 445 298 437 389 397 463 429 362 372 317 288 244 222
321 327 361 387 476 473 498 366 278 514 372 428 395 449 422 404 361 381 346 316 270 218
308 278 315 370 453 464 601 364 514 406 432 427 398 509 463 346 378 444 363 292 247 193
273 289 354 405 430 479 598 609 654 476 435 450 364 474 554 550 572 470 305 283 232 222
250 284 315 401 432 462 505 492 468 541 580 606 536 588 595 488 438 264 261 230 239 238
265 276 318 328 336 376 372 399 408 378 344 375 391 295 266 271 262 214 192 217 244 226
269 294 319 311 334 359 388 355 368 353 361 325 280 259 251 200 204 193 186 203 211 215
263 290 299 320 341 341 326 306 293 281 273 272 222 155 137 139 180 192 183 160 143 149
262 296 317 333 335 329 312 310 299 234 256 226 175 116 122 173 193 177 152 136 123 128
261 281 266 250 233 237 212 189 174 195 177 152 169 95 86 120 140 146 146 154 137 121
197 200 185 194 183 177 175 192 195 183 158 128 99 78 63 80 130 142 157 158 150 141
Wind_Speed
54 56 57 48 49 45 39 47 36 37 35 27 25 21 19 19 20 19 21 24 27 29
57 56 53 46 47 49 46 48 47 32 34 25 19 20 21 22 18 17 20 21 25 29
52 49 53 45 51 46 56 44 42 43 39 29 24 21 20 20 18 18 21 23 24 28
53 53 50 55 51 50 48 49 39 37 35 29 27 26 21 20 20 21 22 26 26 29
51 51 51 55 44 46 38 46 42 41 38 31 27 25 20 22 21 21 23 24 26 29
48 49 49 48 44 44 44 38 36 35 36 31 31 23 21 19 20 23 24 23 24 26
45 46 45 47 46 46 43 48 42 37 33 25 28 26 23 21 21 19 19 18 20 25
40 39 39 42 41 41 37 38 40 36 32 30 28 26 21 24 18 14 14 16 18 22
36 38 40 39 36 36 40 42 34 37 34 31 30 18 17 13 11 14 14 17 19 23
32 31 30 30 35 37 38 35 35 34 30 27 21 17 15 13 15 15 17 18 20 21
31 32 30 31 27 27 30 30 30 27 24 20 22 17 14 17 18 17 17 18 18 18
27 28 28 28 26 28 27 25 23 24 19 19 19 17 16 17 16 16 17 18 18 18
24 24 28 25 23 24 23 23 20 18 17 16 16 14 13 13 15 16 17 18 20 21
18 21 21 20 19 18 18 16 16 14 16 15 14 14 14 15 17 18 21 23 22 23
Wind_Direction
232 242 238 241 234 239 232 245 231 244 242 240 239 250 260 272 285 295 303 308 309 311
241 240 244 241 235 246 243 250 238 238 235 234 234 249 258 270 282 294 306 310 313 316
241 244 245 243 245 250 245 241 242 236 246 241 245 247 253 270 280 286 300 308 314 317
243 242 244 244 249 247 246 247 236 246 245 238 244 253 255 264 270 282 293 303 308 314
244 244 244 242 247 246 242 241 240 245 246 241 251 252 254 258 270 278 289 298 303 309
245 244 245 244 243 239 244 234 249 242 247 245 257 248 260 261 276 284 288 297 301 306
245 245 244 243 244 241 244 240 248 244 246 247 250 256 256 264 277 285 291 299 308 312
245 244 240 243 242 242 239 240 238 243 252 254 251 263 265 264 269 268 285 301 316 320
245 244 243 241 239 237 239 242 245 244 244 252 255 248 251 252 245 260 274 295 314 318
242 241 239 240 239 240 241 241 241 243 246 249 244 244 245 242 253 265 279 294 306 316
243 241 241 240 240 236 235 238 236 238 239 235 245 243 238 249 263 274 287 297 307 316
242 242 241 241 239 239 234 238 236 238 235 237 243 242 243 254 267 280 290 297 309 314
239 237 239 238 234 238 236 238 236 234 236 236 242 244 249 259 270 276 287 300 305 309
237 235 235 235 237 234 234 229 229 226 243 243 250 258 265 269 278 284 289 294 300 309